N8QVQ Weather Reports


time (UTC)temp
C
wind
direction
speed
KPH
gust
KPH
rain 1hr
cm
rain 24hr
cm
rain mn
cm
humidity
%
barometer
mb
20220627200252 16 305 4.8 27.4 0.00 0.00 0.00 58 1018.4
20220627195552 16 314 3.2 27.4 0.00 0.00 0.00 56 1018.7
20220627194852 17 328 4.8 27.4 0.00 0.00 0.00 54 1018.5
20220627194152 16 45 3.2 27.4 0.00 0.00 0.00 55 1018.5
20220627193451 16 333 4.8 27.4 0.00 0.00 0.00 56 1018.4
20220627192750 16 319 8.0 27.4 0.00 0.00 0.00 57 1018.4
20220627192051 18 346 9.7 27.4 0.00 0.00 0.00 53 1018.7
20220627191351 17 354 3.2 27.4 0.00 0.00 0.00 55 1018.4
20220627190651 16 33 3.2 27.4 0.00 0.00 0.00 56 1018.5
20220627185951 17 204 3.2 27.4 0.00 0.00 0.00 55 1018.5
20220627185252 16 319 9.7 27.4 0.00 0.00 0.00 57 1018.6
20220627184552 17 292 9.7 27.4 0.00 0.00 0.00 55 1018.8
20220627183852 16 302 8.0 27.4 0.00 0.00 0.00 56 1018.8
20220627183152 16 332 3.2 27.4 0.00 0.00 0.00 55 1018.8
20220627182452 16 242 4.8 27.4 0.00 0.00 0.00 56 1018.6
20220627181052 16 275 14.5 27.4 0.00 0.00 0.00 58 1018.6
20220627180352 16 301 11.3 27.4 0.00 0.00 0.00 57 1018.6
20220627175651 16 274 4.8 27.4 0.00 0.00 0.00 58 1018.5
20220627174952 17 334 9.7 27.4 0.00 0.00 0.00 54 1018.5
20220627174252 16 329 4.8 27.4 0.00 0.00 0.00 56 1018.6
20220627173552 16 176 3.2 27.4 0.00 0.00 0.00 57 1018.4
20220627172852 15 285 8.0 27.4 0.00 0.00 0.00 61 1018.4
20220627172152 16 322 4.8 27.4 0.00 0.00 0.00 60 1018.4
20220627171453 15 309 11.3 27.4 0.00 0.00 0.00 62 1018.4
20220627170753 16 272 4.8 27.4 0.00 0.00 0.00 61 1018.4
20220627170051 16 316 3.2 27.4 0.00 0.00 0.00 60 1018.3
20220627165351 15 279 3.2 27.4 0.00 0.00 0.00 63 1018.1
20220627164651 16 319 4.8 27.4 0.00 0.00 0.00 60 1018.0
20220627163951 16 333 9.7 27.4 0.00 0.00 0.00 61 1018.1
20220627163251 16 49 1.6 27.4 0.00 0.00 0.00 59 1018.0
20220627162551 17 315 11.3 27.4 0.00 0.00 0.00 56 1018.0
20220627161852 16 316 12.9 27.4 0.00 0.00 0.00 62 1018.1
20220627161152 16 301 11.3 27.4 0.00 0.00 0.00 61 1017.9
20220627160452 15 291 4.8 27.4 0.00 0.00 0.00 64 1017.9
20220627155752 15 325 11.3 27.4 0.00 0.00 0.00 66 1017.9
20220627155052 14 286 12.9 27.4 0.00 0.00 0.00 69 1017.8
20220627154352 15 23 11.3 27.4 0.00 0.00 0.00 68 1017.7
20220627153653 14 353 4.8 22.5 0.00 0.00 0.00 70 1017.6
20220627152953 14 283 3.2 22.5 0.00 0.00 0.00 70 1017.6
20220627152253 14 341 4.8 22.5 0.00 0.00 0.00 70 1017.7
20220627151551 13 268 8.0 22.5 0.00 0.00 0.00 72 1017.7
20220627150851 14 299 9.7 22.5 0.00 0.00 0.00 69 1017.5
20220627150151 13 354 4.8 22.5 0.00 0.00 0.00 71 1017.5
20220627145451 14 298 9.7 22.5 0.00 0.00 0.00 70 1017.5
20220627144752 13 301 3.2 22.5 0.00 0.00 0.00 72 1017.4
20220627144052 13 310 4.8 22.5 0.00 0.00 0.00 71 1017.3
20220627143352 13 348 3.2 22.5 0.00 0.00 0.00 71 1017.4
20220627142652 13 274 3.2 22.5 0.00 0.00 0.00 70 1017.3
20220627141952 13 319 4.8 22.5 0.00 0.00 0.00 71 1017.4
20220627141252 13 304 9.7 22.5 0.00 0.00 0.00 71 1017.1
20220627140553 13 285 8.0 22.5 0.00 0.00 0.00 72 1017.1
20220627135853 13 294 4.8 22.5 0.00 0.00 0.00 73 1016.9
20220627135153 13 347 4.8 22.5 0.00 0.00 0.00 72 1016.8
20220627134453 13 300 8.0 22.5 0.00 0.00 0.00 73 1016.7
20220627133751 13 306 9.7 22.5 0.00 0.00 0.00 73 1016.7
20220627133051 13 290 3.2 22.5 0.00 0.00 0.00 75 1016.7
20220627132351 13 340 3.2 22.5 0.00 0.00 0.00 75 1016.5
20220627131652 13 3 3.2 22.5 0.00 0.00 0.00 75 1016.5
20220627130952 13 65 4.8 22.5 0.00 0.00 0.00 74 1016.6
20220627130252 13 303 4.8 22.5 0.00 0.00 0.00 75 1016.5
20220627125552 13 298 9.7 22.5 0.00 0.00 0.00 74 1016.2
20220627124852 13 310 4.8 22.5 0.00 0.00 0.00 76 1016.2
20220627124152 12 334 4.8 22.5 0.00 0.00 0.00 76 1016.2
20220627123453 12 342 3.2 22.5 0.00 0.00 0.00 76 1016.1
20220627122753 12 334 3.2 22.5 0.00 0.00 0.00 77 1015.9
20220627122053 12 327 4.8 22.5 0.00 0.00 0.00 76 1015.7
20220627121353 12 317 4.8 22.5 0.00 0.00 0.00 76 1015.9
20220627120653 12 331 8.0 22.5 0.00 0.00 0.00 77 1015.7
20220627115953 12 297 8.0 22.5 0.00 0.00 0.00 77 1015.7
20220627115253 12 292 4.8 22.5 0.00 0.00 0.00 78 1015.7
20220627114552 12 303 3.2 22.5 0.00 0.00 0.00 77 1015.5
20220627113852 13 323 3.2 22.5 0.00 0.00 0.00 76 1015.4
20220627113152 13 332 4.8 22.5 0.00 0.00 0.00 76 1015.4
20220627112452 12 312 4.8 22.5 0.00 0.00 0.00 78 1015.3
20220627111752 12 289 4.8 22.5 0.00 0.00 0.00 78 1015.3
20220627111052 12 23 3.2 22.5 0.00 0.00 0.00 79 1015.1
20220627110353 12 302 4.8 22.5 0.00 0.00 0.00 80 1015.0
20220627105653 11 89 1.6 22.5 0.00 0.00 0.00 82 1015.1
20220627104953 11 277 1.6 22.5 0.00 0.00 0.00 83 1014.9
20220627104253 11 174 0.0 22.5 0.00 0.00 0.00 83 1014.7
20220627103552 11 139 0.0 22.5 0.00 0.00 0.00 83 1014.9
20220627102852 11 319 0.0 22.5 0.00 0.00 0.00 82 1014.8
20220627102152 11 256 1.6 22.5 0.00 0.00 0.00 82 1014.7
20220627101453 11 238 1.6 22.5 0.00 0.00 0.00 81 1014.7
20220627100753 11 304 3.2 22.5 0.00 0.00 0.00 80 1014.5
20220627100053 11 223 0.0 22.5 0.00 0.00 0.00 79 1014.7
20220627095353 11 176 0.0 22.5 0.00 0.00 0.00 79 1014.6
20220627094653 11 45 0.0 22.5 0.00 0.00 0.00 78 1014.3
20220627093953 11 187 0.0 22.5 0.00 0.00 0.00 78 1014.3
20220627093254 11 304 3.2 22.5 0.00 0.00 0.00 77 1014.3
20220627092554 12 286 4.8 22.5 0.00 0.00 0.00 76 1014.4
20220627091854 12 277 1.6 22.5 0.00 0.00 0.00 76 1014.4
20220627091152 12 296 1.6 22.5 0.00 0.00 0.00 75 1014.4
20220627090452 12 293 3.2 22.5 0.00 0.00 0.00 75 1014.2
20220627085752 12 317 3.2 22.5 0.00 0.00 0.00 75 1014.5
20220627085052 12 315 1.6 22.5 0.00 0.00 0.00 76 1014.3
20220627084353 12 320 3.2 22.5 0.00 0.00 0.00 75 1014.3
20220627083653 12 297 4.8 22.5 0.00 0.00 0.00 75 1014.3
20220627082953 12 294 8.0 22.5 0.00 0.00 0.00 75 1014.2
20220627082253 12 0 1.6 22.5 0.00 0.00 0.00 75 1014.2
20220627081553 12 331 3.2 22.5 0.00 0.00 0.00 75 1014.4
20220627080853 12 343 3.2 22.5 0.00 0.00 0.00 74 1014.3
20220627080154 12 302 1.6 22.5 0.00 0.00 0.00 74 1014.2
20220627075454 12 303 1.6 22.5 0.00 0.00 0.00 74 1014.4
20220627074754 12 266 3.2 22.5 0.00 0.00 0.00 73 1014.2
20220627074054 12 269 3.2 22.5 0.00 0.00 0.00 74 1014.4
20220627073352 12 319 1.6 22.5 0.00 0.00 0.00 73 1014.6
20220627072652 12 285 3.2 22.5 0.00 0.00 0.00 73 1014.2
20220627071952 12 328 1.6 22.5 0.00 0.00 0.00 72 1014.1
20220627071253 12 224 3.2 22.5 0.00 0.00 0.00 71 1014.3
20220627070553 12 293 3.2 22.5 0.00 0.00 0.00 71 1014.3
20220627065853 12 13 1.6 22.5 0.00 0.00 0.00 72 1014.1
20220627065153 12 306 0.0 22.5 0.00 0.00 0.00 72 1014.1
20220627064453 13 277 1.6 22.5 0.00 0.00 0.00 71 1014.3
20220627063753 13 349 1.6 22.5 0.00 0.00 0.00 70 1014.4
20220627063054 13 281 3.2 22.5 0.00 0.00 0.00 70 1014.0
20220627062354 13 293 3.2 22.5 0.00 0.00 0.00 71 1014.1
20220627061654 13 270 0.0 22.5 0.00 0.00 0.00 71 1014.3
20220627060954 13 4 1.6 22.5 0.00 0.00 0.00 71 1014.1
20220627060254 13 324 1.6 22.5 0.00 0.00 0.00 70 1014.0
20220627055554 13 297 1.6 22.5 0.00 0.00 0.00 69 1013.9
20220627054852 13 291 3.2 22.5 0.00 0.00 0.00 69 1014.0
20220627054153 13 289 3.2 22.5 0.00 0.00 0.00 69 1014.0
20220627053453 13 325 0.0 22.5 0.00 0.00 0.00 69 1014.1
20220627052754 13 332 1.6 22.5 0.00 0.00 0.00 71 1014.2
20220627052054 13 279 3.2 22.5 0.00 0.00 0.00 70 1014.2
20220627051354 13 10 4.8 22.5 0.00 0.00 0.00 70 1014.3
20220627050654 13 218 1.6 22.5 0.00 0.00 0.00 69 1014.2
20220627045954 14 301 1.6 22.5 0.00 0.00 0.00 69 1014.3
20220627045253 14 359 3.2 22.5 0.00 0.00 0.00 70 1014.2
20220627044553 14 307 3.2 22.5 0.00 0.00 0.00 70 1014.2
20220627043853 14 297 3.2 22.5 0.00 0.00 0.00 69 1014.2
20220627043153 14 296 1.6 22.5 0.00 0.00 0.00 70 1014.2
20220627042453 14 294 3.2 22.5 0.00 0.00 0.00 69 1014.0
20220627041753 15 319 9.7 22.5 0.00 0.00 0.00 68 1013.8
20220627041054 15 265 11.3 22.5 0.00 0.00 0.00 68 1014.0
20220627040354 15 286 4.8 9.7 0.00 0.00 0.00 68 1014.0
20220627035654 15 335 9.7 25.7 0.00 0.00 0.00 67 1013.8
20220627034954 15 279 1.6 25.7 0.00 0.00 0.00 66 1013.8
20220627034254 15 28 1.6 25.7 0.00 0.00 0.00 65 1013.7
20220627033554 15 323 8.0 25.7 0.00 0.00 0.00 63 1013.7
20220627032854 15 325 1.6 25.7 0.00 0.00 0.00 62 1013.7
20220627032155 16 351 1.6 25.7 0.00 0.00 0.00 60 1013.4
20220627031453 16 334 4.8 25.7 0.00 0.00 0.00 60 1013.2
20220627030753 16 317 8.0 25.7 0.00 0.00 0.00 60 1013.5
20220627030053 16 253 9.7 25.7 0.00 0.00 0.00 60 1013.3
20220627025353 16 171 4.8 25.7 0.00 0.00 0.00 60 1013.4
20220627024653 17 274 8.0 25.7 0.00 0.00 0.00 58 1013.4
20220627023954 17 284 4.8 25.7 0.00 0.00 0.00 58 1013.1
20220627023254 17 292 3.2 25.7 0.00 0.00 0.00 58 1013.1
20220627022554 17 274 4.8 25.7 0.00 0.00 0.00 59 1013.1
20220627021854 17 358 11.3 25.7 0.00 0.00 0.00 59 1012.8
20220627021153 17 313 11.3 25.7 0.00 0.00 0.00 57 1012.6
20220627020453 17 286 8.0 25.7 0.00 0.00 0.00 57 1012.6
20220627015754 17 317 3.2 25.7 0.00 0.00 0.00 56 1012.4
20220627015055 17 284 9.7 25.7 0.00 0.00 0.00 56 1012.2
20220627014355 17 292 8.0 25.7 0.00 0.00 0.00 56 1012.2
20220627013653 17 305 1.6 25.7 0.00 0.00 0.00 57 1012.3
20220627012953 17 310 1.6 25.7 0.00 0.00 0.00 58 1011.9
20220627012253 18 331 3.2 25.7 0.00 0.00 0.00 57 1011.9
20220627011553 18 292 4.8 25.7 0.00 0.00 0.00 56 1011.8
20220627010854 18 346 1.6 25.7 0.00 0.00 0.00 56 1011.8
20220627010154 18 332 3.2 25.7 0.00 0.00 0.00 55 1011.8
20220627005454 18 292 3.2 25.7 0.00 0.00 0.00 54 1011.5
20220627004754 19 329 1.6 25.7 0.00 0.00 0.00 53 1011.6
20220627004054 19 321 4.8 25.7 0.00 0.00 0.00 54 1011.5
20220627003354 19 319 8.0 25.7 0.00 0.00 0.00 53 1011.5
20220627002654 19 3 4.8 25.7 0.00 0.00 0.00 52 1011.5
20220627001954 20 2 1.6 25.7 0.00 0.00 0.00 53 1011.5
20220627001254 20 281 4.8 25.7 0.00 0.00 0.00 52 1011.4
20220627000554 20 241 8.0 25.7 0.00 0.00 0.00 52 1011.5
20220626235855 20 14 1.6 25.7 0.00 0.00 0.00 52 1011.2
20220626235153 20 265 9.7 25.7 0.00 0.00 0.00 52 1011.0
20220626234453 21 256 1.6 25.7 0.00 0.00 0.00 52 1010.9
20220626233754 21 317 4.8 25.7 0.00 0.00 0.00 51 1010.9
20220626233055 21 5 8.0 25.7 0.00 0.00 0.00 49 1010.8
20220626232354 22 324 4.8 25.7 0.00 0.00 0.00 48 1010.7
20220626231654 22 348 4.8 25.7 0.00 0.00 0.00 49 1010.6
20220626230954 21 14 4.8 25.7 0.00 0.00 0.00 48 1010.7
20220626230254 22 328 8.0 25.7 0.00 0.00 0.00 47 1010.7
20220626225554 23 232 3.2 25.7 0.00 0.00 0.00 46 1010.5
20220626224855 22 295 8.0 25.7 0.00 0.00 0.00 46 1010.5
20220626224155 22 322 8.0 25.7 0.00 0.00 0.00 46 1010.5
20220626223455 22 315 8.0 25.7 0.00 0.00 0.00 47 1010.5
20220626222755 22 351 4.8 25.7 0.00 0.00 0.00 48 1010.7
20220626222055 22 262 9.7 25.7 0.00 0.00 0.00 47 1010.6
20220626221355 22 297 11.3 25.7 0.00 0.00 0.00 47 1010.8
20220626220654 23 309 4.8 25.7 0.00 0.00 0.00 47 1010.7
20220626215954 22 243 9.7 25.7 0.00 0.00 0.00 47 1010.7
20220626215254 22 246 4.8 25.7 0.00 0.00 0.00 48 1010.7
20220626214554 22 308 14.5 25.7 0.00 0.00 0.00 48 1010.6
20220626213854 22 2 8.0 25.7 0.00 0.00 0.00 48 1010.6
20220626213155 22 294 12.9 25.7 0.00 0.00 0.00 49 1010.8
20220626212454 22 335 9.7 25.7 0.00 0.00 0.00 50 1010.5
20220626211755 22 322 9.7 25.7 0.00 0.00 0.00 49 1010.6
20220626211055 22 255 8.0 25.7 0.00 0.00 0.00 49 1010.6
20220626210355 22 333 4.8 25.7 0.00 0.00 0.00 50 1010.6
20220626205655 22 67 3.2 25.7 0.00 0.00 0.00 50 1010.4
20220626204955 22 293 9.7 25.7 0.00 0.00 0.00 50 1010.5
20220626204255 22 270 9.7 25.7 0.00 0.00 0.00 48 1010.2
20220626203556 22 95 3.2 25.7 0.00 0.00 0.00 52 1010.1
20220626202856 21 340 4.8 25.7 0.00 0.00 0.00 52 1010.4
20220626202154 22 286 8.0 25.7 0.00 0.00 0.00 51 1010.3
20220626201454 22 218 8.0 25.7 0.00 0.00 0.00 51 1010.5